Year,Month,Day,Hour,Minute,Value (Times are PST for temperature in C)
2009,05,22,00,00,10.20
2009,05,22,00,01,10.20
2009,05,22,00,02,10.10
2009,05,22,00,03,10.10
2009,05,22,00,04,10.10
2009,05,22,00,05,10.10
2009,05,22,00,06,10.10
2009,05,22,00,07,10.10
2009,05,22,00,08,10.10
2009,05,22,00,09,10.10
2009,05,22,00,10,10.00
2009,05,22,00,11,10.00
2009,05,22,00,12,10.00
2009,05,22,00,13,10.00
2009,05,22,00,14,10.00
2009,05,22,00,15,9.90
2009,05,22,00,16,9.90
2009,05,22,00,17,9.90
2009,05,22,00,18,9.90
2009,05,22,00,19,9.90
2009,05,22,00,20,9.80
2009,05,22,00,21,9.80
2009,05,22,00,22,9.80
2009,05,22,00,23,9.80
2009,05,22,00,24,9.80
2009,05,22,00,25,9.80
2009,05,22,00,26,9.80
2009,05,22,00,27,9.70
2009,05,22,00,28,9.70
2009,05,22,00,29,9.70
2009,05,22,00,30,9.70
2009,05,22,00,31,9.70
2009,05,22,00,32,9.70
2009,05,22,00,33,9.70
2009,05,22,00,34,9.70
2009,05,22,00,35,9.70
2009,05,22,00,36,9.70
2009,05,22,00,37,9.70
2009,05,22,00,38,9.60
2009,05,22,00,39,9.60
2009,05,22,00,40,9.60
2009,05,22,00,41,9.60
2009,05,22,00,42,9.60
2009,05,22,00,43,9.60
2009,05,22,00,44,9.60
2009,05,22,00,45,9.60
2009,05,22,00,46,9.60
2009,05,22,00,47,9.60
2009,05,22,00,48,9.60
2009,05,22,00,49,9.60
2009,05,22,00,50,9.60
2009,05,22,00,51,9.60
2009,05,22,00,52,9.60
2009,05,22,00,53,9.60
2009,05,22,00,54,9.60
2009,05,22,00,55,9.60
2009,05,22,00,56,9.60
2009,05,22,00,57,9.60
2009,05,22,00,58,9.60
2009,05,22,00,59,9.50
2009,05,22,01,00,9.50
2009,05,22,01,01,9.50
2009,05,22,01,02,9.50
2009,05,22,01,03,9.50
2009,05,22,01,04,9.40
2009,05,22,01,05,9.40
2009,05,22,01,06,9.40
2009,05,22,01,07,9.40
2009,05,22,01,08,9.40
2009,05,22,01,09,9.40
2009,05,22,01,10,9.40
2009,05,22,01,11,9.40
2009,05,22,01,12,9.40
2009,05,22,01,13,9.40
2009,05,22,01,14,9.40
2009,05,22,01,15,9.40
2009,05,22,01,16,9.40
2009,05,22,01,17,9.40
2009,05,22,01,18,9.30
2009,05,22,01,19,9.30
2009,05,22,01,20,9.30
2009,05,22,01,21,9.30
2009,05,22,01,22,9.30
2009,05,22,01,23,9.30
2009,05,22,01,24,9.20
2009,05,22,01,25,9.20
2009,05,22,01,26,9.20
2009,05,22,01,27,9.20
2009,05,22,01,28,9.20
2009,05,22,01,29,9.20
2009,05,22,01,30,9.20
2009,05,22,01,31,9.10
2009,05,22,01,32,9.10
2009,05,22,01,33,9.10
2009,05,22,01,34,9.10
2009,05,22,01,35,9.00
2009,05,22,01,36,9.00
2009,05,22,01,37,8.90
2009,05,22,01,38,8.90
2009,05,22,01,39,8.90
2009,05,22,01,40,8.90
2009,05,22,01,41,8.90
2009,05,22,01,42,8.90
2009,05,22,01,43,8.80
2009,05,22,01,44,8.80
2009,05,22,01,45,8.80
2009,05,22,01,46,8.80
2009,05,22,01,47,8.80
2009,05,22,01,48,8.80
2009,05,22,01,49,8.80
2009,05,22,01,50,8.80
2009,05,22,01,51,8.80
2009,05,22,01,52,8.80
2009,05,22,01,53,8.80
2009,05,22,01,54,8.80
2009,05,22,01,55,8.80
2009,05,22,01,56,8.80
2009,05,22,01,57,8.80
2009,05,22,01,58,8.80
2009,05,22,01,59,8.70
2009,05,22,02,00,8.70
2009,05,22,02,01,8.70
2009,05,22,02,02,8.70
2009,05,22,02,03,8.70
2009,05,22,02,04,8.70
2009,05,22,02,05,8.70
2009,05,22,02,06,8.70
2009,05,22,02,07,8.70
2009,05,22,02,08,8.70
2009,05,22,02,09,8.70
2009,05,22,02,10,8.70
2009,05,22,02,11,8.70
2009,05,22,02,12,8.70
2009,05,22,02,13,8.60
2009,05,22,02,14,8.60
2009,05,22,02,15,8.60
2009,05,22,02,16,8.50
2009,05,22,02,17,8.40
2009,05,22,02,18,8.40
2009,05,22,02,19,8.40
2009,05,22,02,20,8.30
2009,05,22,02,21,8.30
2009,05,22,02,22,8.30
2009,05,22,02,23,8.20
2009,05,22,02,24,8.20
2009,05,22,02,25,8.20
2009,05,22,02,26,8.20
2009,05,22,02,27,8.20
2009,05,22,02,28,8.20
2009,05,22,02,29,8.20
2009,05,22,02,30,8.20
2009,05,22,02,31,8.20
2009,05,22,02,32,8.20
2009,05,22,02,33,8.20
2009,05,22,02,34,8.20
2009,05,22,02,35,8.20
2009,05,22,02,36,8.20
2009,05,22,02,37,8.20
2009,05,22,02,38,8.20
2009,05,22,02,39,8.20
2009,05,22,02,40,8.20
2009,05,22,02,41,8.20
2009,05,22,02,42,8.20
2009,05,22,02,43,8.20
2009,05,22,02,44,8.20
2009,05,22,02,45,8.10
2009,05,22,02,46,8.10
2009,05,22,02,47,8.10
2009,05,22,02,48,8.10
2009,05,22,02,49,8.10
2009,05,22,02,50,8.10
2009,05,22,02,51,8.10
2009,05,22,02,52,8.00
2009,05,22,02,53,8.00
2009,05,22,02,54,8.00
2009,05,22,02,55,8.00
2009,05,22,02,56,8.00
2009,05,22,02,57,8.00
2009,05,22,02,58,8.00
2009,05,22,02,59,8.00
2009,05,22,03,00,8.00
2009,05,22,03,01,8.00
2009,05,22,03,02,8.00
2009,05,22,03,03,8.00
2009,05,22,03,04,8.00
2009,05,22,03,05,7.90
2009,05,22,03,06,7.90
2009,05,22,03,07,7.90
2009,05,22,03,08,7.90
2009,05,22,03,09,7.90
2009,05,22,03,10,7.90
2009,05,22,03,11,7.90
2009,05,22,03,12,7.90
2009,05,22,03,13,7.90
2009,05,22,03,14,7.90
2009,05,22,03,15,7.80
2009,05,22,03,16,7.80
2009,05,22,03,17,7.80
2009,05,22,03,18,7.80
2009,05,22,03,19,7.80
2009,05,22,03,20,7.80
2009,05,22,03,21,7.80
2009,05,22,03,22,7.80
2009,05,22,03,23,7.80
2009,05,22,03,24,7.80
2009,05,22,03,25,7.80
2009,05,22,03,26,7.80
2009,05,22,03,27,7.70
2009,05,22,03,28,7.70
2009,05,22,03,29,7.70
2009,05,22,03,30,7.70
2009,05,22,03,31,7.70
2009,05,22,03,32,7.70
2009,05,22,03,33,7.70
2009,05,22,03,34,7.70
2009,05,22,03,35,7.60
2009,05,22,03,36,7.60
2009,05,22,03,37,7.60
2009,05,22,03,38,7.60
2009,05,22,03,39,7.60
2009,05,22,03,40,7.60
2009,05,22,03,41,7.60
2009,05,22,03,42,7.60
2009,05,22,03,43,7.60
2009,05,22,03,44,7.50
2009,05,22,03,45,7.50
2009,05,22,03,46,7.50
2009,05,22,03,47,7.50
2009,05,22,03,48,7.40
2009,05,22,03,49,7.40
2009,05,22,03,50,7.40
2009,05,22,03,51,7.40
2009,05,22,03,52,7.40
2009,05,22,03,53,7.40
2009,05,22,03,54,7.40
2009,05,22,03,55,7.40
2009,05,22,03,56,7.40
2009,05,22,03,57,7.40
2009,05,22,03,58,7.30
2009,05,22,03,59,7.30
2009,05,22,04,00,7.30
2009,05,22,04,01,7.30
2009,05,22,04,02,7.30
2009,05,22,04,03,7.30
2009,05,22,04,04,7.30
2009,05,22,04,05,7.30
2009,05,22,04,06,7.20
2009,05,22,04,07,7.20
2009,05,22,04,08,7.20
2009,05,22,04,09,7.20
2009,05,22,04,10,7.20
2009,05,22,04,11,7.20
2009,05,22,04,12,7.10
2009,05,22,04,13,7.10
2009,05,22,04,14,7.10
2009,05,22,04,15,7.00
2009,05,22,04,16,7.00
2009,05,22,04,17,7.00
2009,05,22,04,18,7.00
2009,05,22,04,19,6.90
2009,05,22,04,20,6.90
2009,05,22,04,21,6.90
2009,05,22,04,22,6.90
2009,05,22,04,23,6.90
2009,05,22,04,24,6.90
2009,05,22,04,25,6.90
2009,05,22,04,26,6.90
2009,05,22,04,27,6.90
2009,05,22,04,28,6.90
2009,05,22,04,29,6.80
2009,05,22,04,30,6.80
2009,05,22,04,31,6.90
2009,05,22,04,32,6.90
2009,05,22,04,33,6.90
2009,05,22,04,34,6.90
2009,05,22,04,35,6.80
2009,05,22,04,36,6.90
2009,05,22,04,37,6.90
2009,05,22,04,38,6.90
2009,05,22,04,39,6.90
2009,05,22,04,40,6.90
2009,05,22,04,41,6.90
2009,05,22,04,42,6.90
2009,05,22,04,43,6.90
2009,05,22,04,44,6.90
2009,05,22,04,45,6.90
2009,05,22,04,46,6.90
2009,05,22,04,47,6.90
2009,05,22,04,48,6.90
2009,05,22,04,49,6.90
2009,05,22,04,50,7.00
2009,05,22,04,51,7.00
2009,05,22,04,52,7.00
2009,05,22,04,53,7.00
2009,05,22,04,54,7.00
2009,05,22,04,55,7.00
2009,05,22,04,56,7.10
2009,05,22,04,57,7.10
2009,05,22,04,58,7.20
2009,05,22,04,59,7.20
2009,05,22,05,00,7.20
2009,05,22,05,01,7.20
2009,05,22,05,02,7.20
2009,05,22,05,03,7.20
2009,05,22,05,04,7.20
2009,05,22,05,05,7.20
2009,05,22,05,06,7.20
2009,05,22,05,07,7.10
2009,05,22,05,08,7.10
2009,05,22,05,09,7.10
2009,05,22,05,10,7.20
2009,05,22,05,11,7.10
2009,05,22,05,12,7.10
2009,05,22,05,13,7.10
2009,05,22,05,14,7.10
2009,05,22,05,15,7.10
2009,05,22,05,16,7.10
2009,05,22,05,17,7.10
2009,05,22,05,18,7.10
2009,05,22,05,19,7.20
2009,05,22,05,20,7.20
2009,05,22,05,21,7.20
2009,05,22,05,22,7.20
2009,05,22,05,23,7.20
2009,05,22,05,24,7.20
2009,05,22,05,25,7.20
2009,05,22,05,26,7.20
2009,05,22,05,27,7.20
2009,05,22,05,28,7.20
2009,05,22,05,29,7.20
2009,05,22,05,30,7.20
2009,05,22,05,31,7.20
2009,05,22,05,32,7.20
2009,05,22,05,33,7.20
2009,05,22,05,34,7.20
2009,05,22,05,35,7.20
2009,05,22,05,36,7.20
2009,05,22,05,37,7.20
2009,05,22,05,38,7.10
2009,05,22,05,39,7.10
2009,05,22,05,40,7.10
2009,05,22,05,41,7.10
2009,05,22,05,42,7.00
2009,05,22,05,43,7.00
2009,05,22,05,44,7.00
2009,05,22,05,45,7.00
2009,05,22,05,46,6.90
2009,05,22,05,47,6.90
2009,05,22,05,48,6.90
2009,05,22,05,49,6.90
2009,05,22,05,50,6.80
2009,05,22,05,51,6.80
2009,05,22,05,52,6.80
2009,05,22,05,53,6.80
2009,05,22,05,54,6.90
2009,05,22,05,55,6.90
2009,05,22,05,56,6.90
2009,05,22,05,57,6.90
2009,05,22,05,58,6.90
2009,05,22,05,59,6.90
2009,05,22,06,00,6.90
2009,05,22,06,01,6.90
2009,05,22,06,02,6.90
2009,05,22,06,03,6.90
2009,05,22,06,04,6.90
2009,05,22,06,05,7.00
2009,05,22,06,06,7.00
2009,05,22,06,07,7.00
2009,05,22,06,08,7.10
2009,05,22,06,09,7.10
2009,05,22,06,10,7.10
2009,05,22,06,11,7.20
2009,05,22,06,12,7.20
2009,05,22,06,13,7.20
2009,05,22,06,14,7.20
2009,05,22,06,15,7.30
2009,05,22,06,16,7.30
2009,05,22,06,17,7.30
2009,05,22,06,18,7.30
2009,05,22,06,19,7.30
2009,05,22,06,20,7.30
2009,05,22,06,21,7.30
2009,05,22,06,22,7.30
2009,05,22,06,23,7.40
2009,05,22,06,24,7.40
2009,05,22,06,25,7.40
2009,05,22,06,26,7.40
2009,05,22,06,27,7.40
2009,05,22,06,28,7.50
2009,05,22,06,29,7.50
2009,05,22,06,30,7.60
2009,05,22,06,31,7.60
2009,05,22,06,32,7.70
2009,05,22,06,33,7.70
2009,05,22,06,34,7.70
2009,05,22,06,35,7.80
2009,05,22,06,36,7.80
2009,05,22,06,37,7.90
2009,05,22,06,38,7.90
2009,05,22,06,39,8.00
2009,05,22,06,40,8.10
2009,05,22,06,41,8.10
2009,05,22,06,42,8.20
2009,05,22,06,43,8.20
2009,05,22,06,44,8.30
2009,05,22,06,45,8.40
2009,05,22,06,46,8.40
2009,05,22,06,47,8.50
2009,05,22,06,48,8.50
2009,05,22,06,49,8.60
2009,05,22,06,50,8.60
2009,05,22,06,51,8.70
2009,05,22,06,52,8.70
2009,05,22,06,53,8.80
2009,05,22,06,54,8.80
2009,05,22,06,55,8.90
2009,05,22,06,56,8.90
2009,05,22,06,57,9.00
2009,05,22,06,58,9.10
2009,05,22,06,59,9.10
2009,05,22,07,00,9.20
2009,05,22,07,01,9.20
2009,05,22,07,02,9.30
2009,05,22,07,03,9.30
2009,05,22,07,04,9.40
2009,05,22,07,05,9.50
2009,05,22,07,06,9.60
2009,05,22,07,07,9.60
2009,05,22,07,08,9.60
2009,05,22,07,09,9.70
2009,05,22,07,10,9.80
2009,05,22,07,11,9.90
2009,05,22,07,12,10.00
2009,05,22,07,13,10.10
2009,05,22,07,14,10.20
2009,05,22,07,15,10.30
2009,05,22,07,16,10.40
2009,05,22,07,17,10.50
2009,05,22,07,18,10.60
2009,05,22,07,19,10.70
2009,05,22,07,20,10.80
2009,05,22,07,21,10.90
2009,05,22,07,22,11.00
2009,05,22,07,23,11.10
2009,05,22,07,24,11.20
2009,05,22,07,25,11.20
2009,05,22,07,26,11.30
2009,05,22,07,27,11.40
2009,05,22,07,28,11.40
2009,05,22,07,29,11.50
2009,05,22,07,30,11.50
2009,05,22,07,31,11.60
2009,05,22,07,32,11.60
2009,05,22,07,33,11.70
2009,05,22,07,34,11.80
2009,05,22,07,35,11.80
2009,05,22,07,36,11.90
2009,05,22,07,37,11.90
2009,05,22,07,38,11.90
2009,05,22,07,39,12.00
2009,05,22,07,40,12.10
2009,05,22,07,41,12.10
2009,05,22,07,42,12.10
2009,05,22,07,43,12.20
2009,05,22,07,44,12.20
2009,05,22,07,45,12.20
2009,05,22,07,46,12.30
2009,05,22,07,47,12.30
2009,05,22,07,48,12.30
2009,05,22,07,49,12.30
2009,05,22,07,50,12.30
2009,05,22,07,51,12.30
2009,05,22,07,52,12.20
2009,05,22,07,53,12.20
2009,05,22,07,54,12.20
2009,05,22,07,55,12.20
2009,05,22,07,56,12.20
2009,05,22,07,57,12.20
2009,05,22,07,58,12.20
2009,05,22,07,59,12.20
2009,05,22,08,00,12.20
2009,05,22,08,01,12.20
2009,05,22,08,02,12.30
2009,05,22,08,03,12.30
2009,05,22,08,04,12.40
2009,05,22,08,05,12.40
2009,05,22,08,06,12.50
2009,05,22,08,07,12.60
2009,05,22,08,08,12.70
2009,05,22,08,09,12.80
2009,05,22,08,10,12.80
2009,05,22,08,11,13.00
2009,05,22,08,12,13.10
2009,05,22,08,13,13.20
2009,05,22,08,14,13.30
2009,05,22,08,15,13.30
2009,05,22,08,16,13.40
2009,05,22,08,17,13.40
2009,05,22,08,18,13.40
2009,05,22,08,19,13.30
2009,05,22,08,20,13.30
2009,05,22,08,21,13.30
2009,05,22,08,22,13.30
2009,05,22,08,23,13.40
2009,05,22,08,24,13.40
2009,05,22,08,25,13.50
2009,05,22,08,26,13.60
2009,05,22,08,27,13.60
2009,05,22,08,28,13.60
2009,05,22,08,29,13.70
2009,05,22,08,30,13.70
2009,05,22,08,31,13.70
2009,05,22,08,32,13.80
2009,05,22,08,33,13.80
2009,05,22,08,34,13.80
2009,05,22,08,35,13.90
2009,05,22,08,36,14.00
2009,05,22,08,37,14.00
2009,05,22,08,38,14.10
2009,05,22,08,39,14.10
2009,05,22,08,40,14.10
2009,05,22,08,41,14.20
2009,05,22,08,42,14.20
2009,05,22,08,43,14.20
2009,05,22,08,44,14.10
2009,05,22,08,45,14.10
2009,05,22,08,46,14.10
2009,05,22,08,47,14.10
2009,05,22,08,48,14.10
2009,05,22,08,49,14.10
2009,05,22,08,50,14.10
2009,05,22,08,51,14.20
2009,05,22,08,52,14.20
2009,05,22,08,53,14.20
2009,05,22,08,54,14.20
2009,05,22,08,55,14.10
2009,05,22,08,56,14.00
2009,05,22,08,57,13.90
2009,05,22,08,58,13.80
2009,05,22,08,59,13.80
2009,05,22,09,00,13.80
2009,05,22,09,01,13.80
2009,05,22,09,02,13.90
2009,05,22,09,03,13.90
2009,05,22,09,04,14.00
2009,05,22,09,05,14.20
2009,05,22,09,06,14.20
2009,05,22,09,07,14.30
2009,05,22,09,08,14.30
2009,05,22,09,09,14.30
2009,05,22,09,10,14.30
2009,05,22,09,11,14.30
2009,05,22,09,12,14.30
2009,05,22,09,13,14.30
2009,05,22,09,14,14.10
2009,05,22,09,15,14.00
2009,05,22,09,16,13.90
2009,05,22,09,17,13.90
2009,05,22,09,18,13.90
2009,05,22,09,19,14.00
2009,05,22,09,20,14.00
2009,05,22,09,21,14.10
2009,05,22,09,22,14.10
2009,05,22,09,23,14.10
2009,05,22,09,24,14.10
2009,05,22,09,25,14.20
2009,05,22,09,26,14.20
2009,05,22,09,27,14.20
2009,05,22,09,28,14.20
2009,05,22,09,29,14.30
2009,05,22,09,30,14.40
2009,05,22,09,31,14.50
2009,05,22,09,32,14.50
2009,05,22,09,33,14.60
2009,05,22,09,34,14.70
2009,05,22,09,35,14.70
2009,05,22,09,36,14.80
2009,05,22,09,37,14.80
2009,05,22,09,38,14.80
2009,05,22,09,39,14.80
2009,05,22,09,40,14.80
2009,05,22,09,41,14.80
2009,05,22,09,42,14.80
2009,05,22,09,43,14.70
2009,05,22,09,44,14.70
2009,05,22,09,45,14.70
2009,05,22,09,46,14.70
2009,05,22,09,47,14.70
2009,05,22,09,48,14.70
2009,05,22,09,49,14.80
2009,05,22,09,50,14.80
2009,05,22,09,51,14.80
2009,05,22,09,52,14.80
2009,05,22,09,53,14.80
2009,05,22,09,54,14.90
2009,05,22,09,55,14.90
2009,05,22,09,56,15.00
2009,05,22,09,57,15.00
2009,05,22,09,58,15.00
2009,05,22,09,59,15.00
2009,05,22,10,00,15.00
2009,05,22,10,01,15.00
2009,05,22,10,02,15.00
2009,05,22,10,03,15.00
2009,05,22,10,04,15.00
2009,05,22,10,05,15.00
2009,05,22,10,06,15.00
2009,05,22,10,07,15.10
2009,05,22,10,08,15.20
2009,05,22,10,09,15.30
2009,05,22,10,10,15.30
2009,05,22,10,11,15.30
2009,05,22,10,12,15.30
2009,05,22,10,13,15.30
2009,05,22,10,14,15.40
2009,05,22,10,15,15.40
2009,05,22,10,16,15.40
2009,05,22,10,17,15.30
2009,05,22,10,18,15.40
2009,05,22,10,19,15.50
2009,05,22,10,20,15.50
2009,05,22,10,21,15.60
2009,05,22,10,22,15.50
2009,05,22,10,23,15.50
2009,05,22,10,24,15.50
2009,05,22,10,25,15.50
2009,05,22,10,26,15.50
2009,05,22,10,27,15.60
2009,05,22,10,28,15.50
2009,05,22,10,29,15.50
2009,05,22,10,30,15.50
2009,05,22,10,31,15.60
2009,05,22,10,32,15.50
2009,05,22,10,33,15.50
2009,05,22,10,34,15.50
2009,05,22,10,35,15.60
2009,05,22,10,36,15.50
2009,05,22,10,37,15.50
2009,05,22,10,38,15.50
2009,05,22,10,39,15.50
2009,05,22,10,40,15.50
2009,05,22,10,41,15.60
2009,05,22,10,42,15.60
2009,05,22,10,43,15.60
2009,05,22,10,44,15.60
2009,05,22,10,45,15.50
2009,05,22,10,46,15.50
2009,05,22,10,47,15.40
2009,05,22,10,48,15.40
2009,05,22,10,49,15.40
2009,05,22,10,50,15.40
2009,05,22,10,51,15.40
2009,05,22,10,52,15.40
2009,05,22,10,53,15.40
2009,05,22,10,54,15.40
2009,05,22,10,55,15.50
2009,05,22,10,56,15.50
2009,05,22,10,57,15.60
2009,05,22,10,58,15.70
2009,05,22,10,59,15.70
2009,05,22,11,00,15.70
2009,05,22,11,01,15.60
2009,05,22,11,02,15.60
2009,05,22,11,03,15.60
2009,05,22,11,04,15.60
2009,05,22,11,05,15.60
2009,05,22,11,06,15.70
2009,05,22,11,07,15.60
2009,05,22,11,08,15.50
2009,05,22,11,09,15.50
2009,05,22,11,10,15.40
2009,05,22,11,11,15.40
2009,05,22,11,12,15.30
2009,05,22,11,13,15.30
2009,05,22,11,14,15.30
2009,05,22,11,15,15.30
2009,05,22,11,16,15.40
2009,05,22,11,17,15.40
2009,05,22,11,18,15.40
2009,05,22,11,19,15.50
2009,05,22,11,20,15.50
2009,05,22,11,21,15.60
2009,05,22,11,22,15.60
2009,05,22,11,23,15.60
2009,05,22,11,24,15.60
2009,05,22,11,25,15.70
2009,05,22,11,26,15.70
2009,05,22,11,27,15.80
2009,05,22,11,28,15.80
2009,05,22,11,29,15.90
2009,05,22,11,30,15.90
2009,05,22,11,31,15.90
2009,05,22,11,32,15.90
2009,05,22,11,33,15.90
2009,05,22,11,34,15.90
2009,05,22,11,35,16.00
2009,05,22,11,36,16.10
2009,05,22,11,37,16.20
2009,05,22,11,38,16.20
2009,05,22,11,39,16.10
2009,05,22,11,40,16.00
2009,05,22,11,41,16.00
2009,05,22,11,42,15.90
2009,05,22,11,43,16.00
2009,05,22,11,44,16.00
2009,05,22,11,45,16.10
2009,05,22,11,46,16.20
2009,05,22,11,47,16.20
2009,05,22,11,48,16.20
2009,05,22,11,49,16.20
2009,05,22,11,50,16.20
2009,05,22,11,51,16.20
2009,05,22,11,52,16.20
2009,05,22,11,53,16.20
2009,05,22,11,54,16.30
2009,05,22,11,55,16.30
2009,05,22,11,56,16.20
2009,05,22,11,57,16.20
2009,05,22,11,58,16.20
2009,05,22,11,59,16.20
2009,05,22,12,00,16.20
2009,05,22,12,01,16.20
2009,05,22,12,02,16.30
2009,05,22,12,03,16.40
2009,05,22,12,04,16.40
2009,05,22,12,05,16.40
2009,05,22,12,06,16.50
2009,05,22,12,07,16.60
2009,05,22,12,08,16.60
2009,05,22,12,09,16.70
2009,05,22,12,10,16.80
2009,05,22,12,11,16.80
2009,05,22,12,12,16.90
2009,05,22,12,13,17.00
2009,05,22,12,14,16.90
2009,05,22,12,15,16.80
2009,05,22,12,16,16.70
2009,05,22,12,17,16.60
2009,05,22,12,18,16.50
2009,05,22,12,19,16.40
2009,05,22,12,20,16.40
2009,05,22,12,21,16.40
2009,05,22,12,22,16.50
2009,05,22,12,23,16.50
2009,05,22,12,24,16.60
2009,05,22,12,25,16.60
2009,05,22,12,26,16.60
2009,05,22,12,27,16.50
2009,05,22,12,28,16.50
2009,05,22,12,29,16.50
2009,05,22,12,30,16.60
2009,05,22,12,31,16.70
2009,05,22,12,32,16.70
2009,05,22,12,33,16.70
2009,05,22,12,34,16.70
2009,05,22,12,35,16.70
2009,05,22,12,36,16.70
2009,05,22,12,37,16.70
2009,05,22,12,38,16.80
2009,05,22,12,39,16.80
2009,05,22,12,40,16.80
2009,05,22,12,41,16.70
2009,05,22,12,42,16.60
2009,05,22,12,43,16.60
2009,05,22,12,44,16.50
2009,05,22,12,45,16.60
2009,05,22,12,46,16.70
2009,05,22,12,47,16.70
2009,05,22,12,48,16.70
2009,05,22,12,49,16.70
2009,05,22,12,50,16.70
2009,05,22,12,51,16.70
2009,05,22,12,52,16.70
2009,05,22,12,53,16.60
2009,05,22,12,54,16.60
2009,05,22,12,55,16.60
2009,05,22,12,56,16.60
2009,05,22,12,57,16.60
2009,05,22,12,58,16.60
2009,05,22,12,59,16.60
2009,05,22,13,00,16.70
2009,05,22,13,01,16.80
2009,05,22,13,02,16.80
2009,05,22,13,03,16.90
2009,05,22,13,04,17.00
2009,05,22,13,05,17.00
2009,05,22,13,06,17.00
2009,05,22,13,07,17.10
2009,05,22,13,08,17.10
2009,05,22,13,09,17.20
2009,05,22,13,10,17.20
2009,05,22,13,11,17.20
2009,05,22,13,12,17.20
2009,05,22,13,13,17.30
2009,05,22,13,14,17.20
2009,05,22,13,15,17.20
2009,05,22,13,16,17.20
2009,05,22,13,17,17.10
2009,05,22,13,18,17.10
2009,05,22,13,19,17.00
2009,05,22,13,20,17.00
2009,05,22,13,21,16.90
2009,05,22,13,22,16.80
2009,05,22,13,23,16.80
2009,05,22,13,24,16.80
2009,05,22,13,25,16.90
2009,05,22,13,26,16.90
2009,05,22,13,27,16.90
2009,05,22,13,28,17.00
2009,05,22,13,29,17.10
2009,05,22,13,30,17.20
2009,05,22,13,31,17.20
2009,05,22,13,32,17.40
2009,05,22,13,33,17.40
2009,05,22,13,34,17.50
2009,05,22,13,35,17.50
2009,05,22,13,36,17.60
2009,05,22,13,37,17.70
2009,05,22,13,38,17.80
2009,05,22,13,39,17.80
2009,05,22,13,40,17.80
2009,05,22,13,41,17.60
2009,05,22,13,42,17.40
2009,05,22,13,43,17.30
2009,05,22,13,44,17.40
2009,05,22,13,45,17.50
2009,05,22,13,46,17.60
2009,05,22,13,47,17.60
2009,05,22,13,48,17.70
2009,05,22,13,49,17.70
2009,05,22,13,50,17.70
2009,05,22,13,51,17.70
2009,05,22,13,52,17.80
2009,05,22,13,53,17.80
2009,05,22,13,54,17.90
2009,05,22,13,55,18.00
2009,05,22,13,56,18.10
2009,05,22,13,57,18.10
2009,05,22,13,58,18.10
2009,05,22,13,59,18.00
2009,05,22,14,00,17.80
2009,05,22,14,01,17.80
2009,05,22,14,02,17.90
2009,05,22,14,03,18.10
2009,05,22,14,04,18.10
2009,05,22,14,05,18.20
2009,05,22,14,06,18.10
2009,05,22,14,07,18.00
2009,05,22,14,08,17.90
2009,05,22,14,09,17.80
2009,05,22,14,10,17.80
2009,05,22,14,11,17.80
2009,05,22,14,12,17.80
2009,05,22,14,13,17.80
2009,05,22,14,14,17.80
2009,05,22,14,15,17.70
2009,05,22,14,16,17.60
2009,05,22,14,17,17.60
2009,05,22,14,18,17.60
2009,05,22,14,19,17.50
2009,05,22,14,20,17.50
2009,05,22,14,21,17.50
2009,05,22,14,22,17.60
2009,05,22,14,23,17.70
2009,05,22,14,24,17.80
2009,05,22,14,25,17.90
2009,05,22,14,26,18.00
2009,05,22,14,27,18.20
2009,05,22,14,28,18.30
2009,05,22,14,29,18.50
2009,05,22,14,30,18.60
2009,05,22,14,31,18.70
2009,05,22,14,32,18.70
2009,05,22,14,33,18.70
2009,05,22,14,34,18.80
2009,05,22,14,35,18.80
2009,05,22,14,36,18.90
2009,05,22,14,37,18.90
2009,05,22,14,38,18.90
2009,05,22,14,39,18.90
2009,05,22,14,40,18.90
2009,05,22,14,41,18.80
2009,05,22,14,42,18.80
2009,05,22,14,43,18.70
2009,05,22,14,44,18.80
2009,05,22,14,45,18.80
2009,05,22,14,46,18.80
2009,05,22,14,47,18.80
2009,05,22,14,48,18.70
2009,05,22,14,49,18.70
2009,05,22,14,50,18.80
2009,05,22,14,51,18.80
2009,05,22,14,52,18.80
2009,05,22,14,53,18.80
2009,05,22,14,54,18.80
2009,05,22,14,55,18.70
2009,05,22,14,56,18.60
2009,05,22,14,57,18.50
2009,05,22,14,58,18.40
2009,05,22,14,59,18.30
2009,05,22,15,00,18.30
2009,05,22,15,01,18.30
2009,05,22,15,02,18.30
2009,05,22,15,03,18.30
2009,05,22,15,04,18.40
2009,05,22,15,05,18.40
2009,05,22,15,06,18.40
2009,05,22,15,07,18.40
2009,05,22,15,08,18.40
2009,05,22,15,09,18.50
2009,05,22,15,10,18.60
2009,05,22,15,11,18.70
2009,05,22,15,12,18.70
2009,05,22,15,13,18.70
2009,05,22,15,14,18.70
2009,05,22,15,15,18.80
2009,05,22,15,16,18.70
2009,05,22,15,17,18.70
2009,05,22,15,18,18.80
2009,05,22,15,19,18.80
2009,05,22,15,20,18.90
2009,05,22,15,21,18.90
2009,05,22,15,22,18.90
2009,05,22,15,23,18.90
2009,05,22,15,24,18.90
2009,05,22,15,25,18.90
2009,05,22,15,26,18.90
2009,05,22,15,27,18.90
2009,05,22,15,28,18.90
2009,05,22,15,29,18.80
2009,05,22,15,30,18.70
2009,05,22,15,31,18.70
2009,05,22,15,32,18.70
2009,05,22,15,33,18.70
2009,05,22,15,34,18.80
2009,05,22,15,35,18.80
2009,05,22,15,36,18.80
2009,05,22,15,37,18.80
2009,05,22,15,38,18.80
2009,05,22,15,39,18.80
2009,05,22,15,40,18.80
2009,05,22,15,41,18.80
2009,05,22,15,42,18.80
2009,05,22,15,43,18.90
2009,05,22,15,44,18.90
2009,05,22,15,45,19.00
2009,05,22,15,46,19.00
2009,05,22,15,47,19.10
2009,05,22,15,48,19.10
2009,05,22,15,49,19.10
2009,05,22,15,50,19.20
2009,05,22,15,51,19.30
2009,05,22,15,52,19.40
2009,05,22,15,53,19.50
2009,05,22,15,54,19.50
2009,05,22,15,55,19.60
2009,05,22,15,56,19.60
2009,05,22,15,57,19.60
2009,05,22,15,58,19.60
2009,05,22,15,59,19.60
2009,05,22,16,00,19.70
2009,05,22,16,01,19.80
2009,05,22,16,02,19.70
2009,05,22,16,03,19.70
2009,05,22,16,04,19.70
2009,05,22,16,05,19.70
2009,05,22,16,06,19.70
2009,05,22,16,07,19.60
2009,05,22,16,08,19.50
2009,05,22,16,09,19.40
2009,05,22,16,10,19.30
2009,05,22,16,11,19.20
2009,05,22,16,12,19.20
2009,05,22,16,13,19.20
2009,05,22,16,14,19.10
2009,05,22,16,15,19.10
2009,05,22,16,16,19.10
2009,05,22,16,17,19.10
2009,05,22,16,18,19.10
2009,05,22,16,19,19.20
2009,05,22,16,20,19.20
2009,05,22,16,21,19.20
2009,05,22,16,22,19.20
2009,05,22,16,23,19.20
2009,05,22,16,24,19.20
2009,05,22,16,25,19.10
2009,05,22,16,26,19.20
2009,05,22,16,27,19.30
2009,05,22,16,28,19.20
2009,05,22,16,29,19.30
2009,05,22,16,30,19.30
2009,05,22,16,31,19.40
2009,05,22,16,32,19.40
2009,05,22,16,33,19.30
2009,05,22,16,34,19.30
2009,05,22,16,35,19.30
2009,05,22,16,36,19.20
2009,05,22,16,37,19.10
2009,05,22,16,38,19.10
2009,05,22,16,39,18.90
2009,05,22,16,40,18.80
2009,05,22,16,41,18.80
2009,05,22,16,42,18.70
2009,05,22,16,43,18.70
2009,05,22,16,44,18.80
2009,05,22,16,45,18.90
2009,05,22,16,46,19.00
2009,05,22,16,47,19.10
2009,05,22,16,48,19.30
2009,05,22,16,49,19.40
2009,05,22,16,50,19.40
2009,05,22,16,51,19.30
2009,05,22,16,52,19.30
2009,05,22,16,53,19.40
2009,05,22,16,54,19.40
2009,05,22,16,55,19.50
2009,05,22,16,56,19.50
2009,05,22,16,57,19.40
2009,05,22,16,58,19.30
2009,05,22,16,59,19.30
2009,05,22,17,00,19.20
2009,05,22,17,01,19.20
2009,05,22,17,02,19.10
2009,05,22,17,03,19.10
2009,05,22,17,04,19.10
2009,05,22,17,05,19.00
2009,05,22,17,06,18.90
2009,05,22,17,07,18.90
2009,05,22,17,08,18.90
2009,05,22,17,09,18.80
2009,05,22,17,10,18.80
2009,05,22,17,11,18.80
2009,05,22,17,12,18.90
2009,05,22,17,13,18.90
2009,05,22,17,14,18.90
2009,05,22,17,15,18.90
2009,05,22,17,16,18.90
2009,05,22,17,17,18.90
2009,05,22,17,18,18.90
2009,05,22,17,19,18.90
2009,05,22,17,20,18.90
2009,05,22,17,21,18.90
2009,05,22,17,22,19.00
2009,05,22,17,23,19.00
2009,05,22,17,24,19.10
2009,05,22,17,25,19.00
2009,05,22,17,26,19.00
2009,05,22,17,27,19.00
2009,05,22,17,28,19.00
2009,05,22,17,29,18.90
2009,05,22,17,30,18.80
2009,05,22,17,31,18.90
2009,05,22,17,32,18.90
2009,05,22,17,33,19.00
2009,05,22,17,34,19.00
2009,05,22,17,35,19.00
2009,05,22,17,36,19.00
2009,05,22,17,37,19.00